Date String (YYYY-MM-DD hh:mm:ss) UTC,Instrument flags,Ambient pressure (hPa),Sample flow (lpm),Bypass flow (lpm),Sample temperature (°C),Ambient temperature (°C),ASC tube jacket temperature (°C),LED temperature (°C),Box temperature (°C),Sample RH (%),Span deviation,Mass concentration (μg/m³),Mass concentration (μg/m³),Mass concentration (μg/m³)
DateTimeUTC,F1_M11,P_M11,Q1_M11,Q2_M11,T1_M11,T2_M11,T3_M11,T4_M11,T5_M11,U1_M11,ZSPAN_M11,X0_M11,X2_M11,X1_M11
2022-11-10 06:00:00,,0818.9,5.02,0.00,21.7,21.2,00.0,30.4,23.6,18.7,-001.1,0012.68,0006.86,0006.16
2022-11-10 06:01:00,,0819.0,4.99,0.00,21.7,20.9,00.0,30.4,23.6,18.7,-001.2,0012.82,0006.82,0006.13
2022-11-10 06:02:00,,0819.0,4.99,0.00,21.7,20.7,00.0,30.4,23.5,18.7,-001.3,0012.77,0006.80,0006.12
2022-11-10 06:03:00,,0818.9,5.00,0.00,21.7,20.5,00.0,30.4,23.5,18.7,-001.5,0013.17,0006.81,0006.12
2022-11-10 06:04:00,,0819.1,5.01,0.00,21.7,20.5,00.0,30.4,23.5,18.7,-001.2,0014.76,0006.81,0006.12
2022-11-10 06:05:00,,0819.0,5.00,0.00,21.7,20.4,00.0,30.4,23.5,18.7,-001.4,0014.71,0006.82,0006.13
2022-11-10 06:06:00,,0818.8,5.01,0.00,21.7,20.4,00.0,30.5,23.6,18.7,-001.1,0013.66,0006.80,0006.13
2022-11-10 06:07:00,,0818.7,4.99,0.00,21.7,20.5,00.0,30.5,23.6,18.6,-001.5,0014.53,0006.81,0006.12
2022-11-10 06:08:00,,0818.7,4.99,0.00,21.7,20.4,00.0,30.5,23.6,18.6,-001.7,0014.62,0006.83,0006.13
2022-11-10 06:09:00,,0818.7,5.00,0.00,21.8,20.5,00.0,30.5,23.6,18.6,-001.7,0014.49,0006.85,0006.12
2022-11-10 06:10:00,,0818.6,5.01,0.00,21.8,20.5,00.0,30.5,23.7,18.6,-001.4,0015.17,0006.89,0006.13
2022-11-10 06:11:00,,0818.4,5.00,0.00,21.8,20.5,00.0,30.5,23.7,18.6,-001.0,0015.23,0006.89,0006.14
2022-11-10 06:12:00,,0818.4,4.99,0.00,21.8,20.6,00.0,30.5,23.7,18.5,-001.0,0015.33,0006.93,0006.15
2022-11-10 06:13:00,,0818.4,5.00,0.00,21.8,20.6,00.0,30.5,23.7,18.5,-000.6,0015.62,0006.99,0006.17
2022-11-10 06:14:00,,0818.4,5.00,0.00,21.8,20.5,00.0,30.5,23.7,18.6,-000.4,0016.17,0007.02,0006.18
2022-11-10 06:15:00,,0818.3,5.00,0.00,21.8,20.5,00.0,30.5,23.7,18.5,-000.3,0015.93,0007.07,0006.20
2022-11-10 06:16:00,,0818.4,4.99,0.00,21.8,20.4,00.0,30.6,23.7,18.5,-000.3,0016.10,0007.11,0006.22
2022-11-10 06:17:00,,0818.4,5.00,0.00,21.8,20.4,00.0,30.6,23.6,18.5,-000.1,0015.88,0007.10,0006.22
2022-11-10 06:18:00,,0818.4,5.00,0.00,21.8,20.4,00.0,30.6,23.6,18.6,0000.0,0015.27,0007.10,0006.23
2022-11-10 06:19:00,,0818.4,5.02,0.00,21.8,20.4,00.0,30.6,23.6,18.6,0000.4,0014.92,0007.11,0006.23
2022-11-10 06:20:00,,0818.7,4.97,0.00,21.8,20.4,00.0,30.6,23.7,18.5,0000.6,0015.68,0007.08,0006.24
2022-11-10 06:21:00,,0818.7,5.02,0.00,21.8,20.3,00.0,30.6,23.6,18.5,0000.5,0015.13,0007.07,0006.24
2022-11-10 06:22:00,,0818.8,5.00,0.00,21.8,20.3,00.0,30.6,23.6,18.6,0000.4,0015.09,0007.08,0006.25
2022-11-10 06:23:00,,0818.8,5.00,0.00,21.8,20.3,00.0,30.6,23.6,18.6,0000.4,0015.83,0007.07,0006.25
2022-11-10 06:24:00,,0818.9,5.01,0.00,21.8,20.4,00.0,30.6,23.6,18.6,0000.2,0016.37,0007.03,0006.24
2022-11-10 06:25:00,,0818.7,5.01,0.00,21.8,20.4,00.0,30.6,23.7,18.5,0000.1,0016.10,0007.02,0006.25
2022-11-10 06:26:00,,0818.7,5.00,0.00,21.8,20.5,00.0,30.6,23.7,18.5,-000.3,0015.12,0007.00,0006.25
2022-11-10 06:27:00,,0818.7,5.00,0.00,21.8,21.0,00.0,30.6,23.8,18.5,-000.4,0015.33,0006.98,0006.25
2022-11-10 06:28:00,,0818.8,5.00,0.00,21.9,21.9,00.0,30.6,24.0,18.4,-000.5,0015.41,0006.99,0006.27
2022-11-10 06:29:00,,0818.9,4.99,0.00,22.0,22.0,00.0,30.6,24.1,18.3,-000.5,0015.52,0007.00,0006.26
2022-11-10 06:30:00,,0818.8,4.99,0.00,22.0,21.7,00.0,30.7,24.1,18.3,-000.4,0015.85,0007.03,0006.27
2022-11-10 06:31:00,,0818.7,5.00,0.00,22.1,21.5,00.0,30.7,24.0,18.2,-000.6,0015.88,0007.11,0006.28
2022-11-10 06:32:00,,0818.7,5.01,0.00,22.1,21.4,00.0,30.7,24.0,18.2,-000.6,0016.44,0007.18,0006.30
2022-11-10 06:33:00,,0818.7,5.01,0.00,22.1,21.3,00.0,30.7,24.0,18.2,-000.8,0016.63,0007.17,0006.30
2022-11-10 06:34:00,,0818.6,5.00,0.00,22.1,21.2,00.0,30.7,24.0,18.2,-001.2,0016.71,0007.19,0006.31
2022-11-10 06:35:00,,0818.5,4.99,0.00,22.1,21.2,00.0,30.8,24.0,18.1,-001.5,0016.36,0007.21,0006.33
2022-11-10 06:36:00,,0818.5,5.00,0.00,22.1,21.2,00.0,30.8,24.0,18.1,-001.3,0016.13,0007.21,0006.34
2022-11-10 06:37:00,,0818.5,4.99,0.00,22.1,21.2,00.0,30.8,24.0,18.1,-001.2,0015.58,0007.20,0006.34
2022-11-10 06:38:00,,0818.4,4.99,0.00,22.2,21.1,00.0,30.8,24.0,18.1,-001.0,0014.76,0007.19,0006.34
2022-11-10 06:39:00,,0818.4,5.01,0.00,22.2,21.1,00.0,30.9,24.0,18.1,-000.9,0014.77,0007.20,0006.35
2022-11-10 06:40:00,,0818.5,5.00,0.00,22.2,21.0,00.0,30.9,24.1,18.0,-000.9,0014.66,0007.18,0006.38
2022-11-10 06:41:00,,0818.5,5.00,0.00,22.2,20.9,00.0,30.9,24.0,18.0,-001.0,0014.24,0007.17,0006.41
2022-11-10 06:42:00,,0818.4,5.00,0.00,22.2,20.8,00.0,30.9,24.0,18.0,-001.0,0014.56,0007.11,0006.41
2022-11-10 06:43:00,,0818.4,5.00,0.00,22.2,20.8,00.0,30.9,24.0,18.0,-000.9,0013.81,0007.09,0006.43
2022-11-10 06:44:00,,0818.3,5.01,0.00,22.1,20.8,00.0,30.9,24.0,18.0,-000.8,0013.73,0007.14,0006.44
2022-11-10 06:45:00,,0818.4,5.01,0.00,22.1,20.8,00.0,30.9,24.0,18.1,-000.5,0013.38,0007.16,0006.46
2022-11-10 06:46:00,,0818.4,5.00,0.00,22.1,20.7,00.0,30.9,24.0,18.0,-000.2,0012.70,0007.17,0006.47
2022-11-10 06:47:00,,0818.4,5.00,0.00,22.1,20.6,00.0,30.9,23.9,18.1,-000.5,0013.13,0007.28,0006.48
2022-11-10 06:48:00,,0818.4,5.00,0.00,22.1,20.4,00.0,30.9,23.9,18.1,-000.5,0013.24,0007.30,0006.50
2022-11-10 06:49:00,,0818.4,5.00,0.00,22.0,20.3,00.0,30.9,23.8,18.2,-001.0,0013.14,0007.28,0006.52
2022-11-10 06:50:00,,0818.4,5.03,0.00,22.0,20.2,00.0,30.8,23.8,18.2,-001.1,0013.53,0007.30,0006.53
2022-11-10 06:51:00,,0818.5,4.99,0.00,22.0,20.3,00.0,30.8,23.8,18.3,-001.0,0014.38,0007.38,0006.53
2022-11-10 06:52:00,,0818.5,4.99,0.00,22.0,20.2,00.0,30.8,23.7,18.3,-001.4,0014.62,0007.43,0006.52
2022-11-10 06:53:00,,0818.5,4.99,0.00,21.9,20.2,00.0,30.8,23.7,18.3,-001.5,0014.95,0007.47,0006.53
2022-11-10 06:54:00,,0818.5,5.01,0.00,21.9,20.2,00.0,30.8,23.7,18.3,-001.5,0015.94,0007.49,0006.54
2022-11-10 06:55:00,,0818.5,5.00,0.00,21.9,20.2,00.0,30.8,23.7,18.4,-001.9,0016.27,0007.50,0006.55
2022-11-10 06:56:00,,0818.5,4.99,0.00,21.9,20.3,00.0,30.8,23.7,18.4,-001.9,0016.33,0007.47,0006.54
2022-11-10 06:57:00,,0818.4,5.00,0.00,21.9,20.7,00.0,30.7,23.8,18.3,-002.2,0016.55,0007.49,0006.56
2022-11-10 06:58:00,,0818.4,5.00,0.00,22.0,21.6,00.0,30.7,24.0,18.2,-002.1,0016.59,0007.44,0006.59
2022-11-10 06:59:00,,0818.4,4.98,0.00,22.1,22.1,00.0,30.8,24.1,18.1,-002.1,0016.55,0007.41,0006.61
